Current Version              Previous Version:    01  02  03  04  05  06  07  08  09  10  11  12  13  14  15  16  17  18  19  20  21  22  23  24  25  26  27  28  29  30  
   31  32  33  34  35  36  37  38  39  40  41  42  43  44  45  46  47  48  49  50  51  52  53  54  55  56  57  58  59  60  

[Printable]
010
ASUS44 KFWD 230015
RWRTX
NORTH TEXAS HOURLY WEATHER ROUNDUP
NATIONAL WEATHER SERVICE FORT WORTH TX
700 PM CDT TUE APR 22 2014

NOTE: "FAIR" INDICATES FEW OR NO CLOUDS BELOW 12,000 FEET WITH NO
SIGNIFICANT WEATHER AND/OR OBSTRUCTIONS TO VISIBILITY.

TXZ118-119-230100-
DALLAS/FORT WORTH METROPLEX

CITY           SKY/WX    TMP DP  RH WIND       PRES   REMARKS
DFW AIRPORT    SUNNY     80  55  42 NE9       29.92F
6HR MIN TEMP:  79; 6HR MAX TEMP:  84;

DALLAS LOVE    SUNNY     82  53  36 NW8       29.91F
6HR MIN TEMP:  79; 6HR MAX TEMP:  84;

FTW MEACHAM    SUNNY     80  54  40 NE6       29.92F
6HR MIN TEMP:  78; 6HR MAX TEMP:  83;

DAL-EXECUTIVE  SUNNY     80  56  43 SE6       29.92F
6HR MIN TEMP:  78; 6HR MAX TEMP:  84;

FTW-ALLIANCE   MOSUNNY   78  53  41 N9        29.93F
6HR MIN TEMP:  76; 6HR MAX TEMP:  81;

FTW-NAS-JRB    SUNNY     83  52  34 N7        29.96F
6HR MIN TEMP:  80; 6HR MAX TEMP:  85;

FTW-SPINKS     SUNNY     82  52  34 E5        29.94F
ARLINGTON      SUNNY     82  52  35 E3        29.92F
6HR MIN TEMP:  78; 6HR MAX TEMP:  84;

GRAND PRAIRIE  SUNNY     81  48  32 N5        29.94F
ADDISON        SUNNY     81  50  34 N7        29.93
MESQUITE       SUNNY     79  55  44 MISG      29.93F
LANCASTER      SUNNY     79  56  45 E3        29.94F
6HR MIN TEMP:  74; 6HR MAX TEMP:  81;

$$

TXZ091>094-102>105-117-120-121-131>134-230100-
NORTH CENTRAL TEXAS

CITY           SKY/WX    TMP DP  RH WIND       PRES   REMARKS
SHRMAN/DENISON SUNNY     76  48  37 N3        29.96F
6HR MIN TEMP:  75; 6HR MAX TEMP:  79;

GAINESVILLE    SUNNY     77  53  42 E3        29.96F
6HR MIN TEMP:  74; 6HR MAX TEMP:  79;

BOWIE          SUNNY     79  56  44 E3        29.95F
6HR MIN TEMP:  77; 6HR MAX TEMP:  82;

BRIDGEPORT     SUNNY     78  53  43 SE5       29.96F
6HR MIN TEMP:  77; 6HR MAX TEMP:  80;

DECATUR        SUNNY     77  53  43 NE5       29.95F
6HR MIN TEMP:  76; 6HR MAX TEMP:  80;

DENTON         SUNNY     77  56  48 N7        29.93F
6HR MIN TEMP:  77; 6HR MAX TEMP:  81;

MCKINNEY       SUNNY     79  53  40 NE6       29.93F
6HR MIN TEMP:  78; 6HR MAX TEMP:  82;

GREENVILLE     SUNNY     79  48  34 CALM      29.94S
ROCKWALL       SUNNY     82  55  39 N3        29.92F
6HR MIN TEMP:  78; 6HR MAX TEMP:  85;

TERRELL        SUNNY     81  56  42 NE3       29.93F
6HR MIN TEMP:  77; 6HR MAX TEMP:  82;

WAXAHACHIE     SUNNY     78  56  46 CALM      29.94F
6HR MIN TEMP:  76; 6HR MAX TEMP:  80;

CLEBURNE       SUNNY     81  57  44 E3        29.95F
GRANBURY       SUNNY     82  51  33 CALM      29.95F
6HR MIN TEMP:  79; 6HR MAX TEMP:  84;

$$

TXZ083>090-098>101-113>116-127>130-139>142-154-155-230100-
WESTERN NORTH TEXAS

CITY           SKY/WX    TMP DP  RH WIND       PRES   REMARKS
WICHITA FALLS  SUNNY     78  51  38 E8        29.94F
6HR MIN TEMP:  76; 6HR MAX TEMP:  80;

WF-KICKAPOO    SUNNY     80  50  35 E7        29.95F
6HR MIN TEMP:  77; 6HR MAX TEMP:  81;

VERNON         SUNNY     82  50  33 S10       29.93F
6HR MIN TEMP:  55; 6HR MAX TEMP:  83;

ABILENE        SUNNY     82  41  23 SE13      29.94F
6HR MIN TEMP:  79; 6HR MAX TEMP:  84;

ABILENE-DYESS  SUNNY     83  43  24 SE13G20   29.93F
6HR MIN TEMP:  80; 6HR MAX TEMP:  85;

BRECKENRIDGE   SUNNY     84  43  23 SE9G17    29.93F
6HR MIN TEMP:  82; 6HR MAX TEMP:  86;

GRAHAM         SUNNY     82  47  29 E5        29.92F
6HR MIN TEMP:  80; 6HR MAX TEMP:  84;

MINERAL WELLS  SUNNY     80  52  37 E6        29.92F
6HR MIN TEMP:  79; 6HR MAX TEMP:  83;

STEPHENVILLE   SUNNY     81  48  31 E8        29.97F
6HR MIN TEMP:  78; 6HR MAX TEMP:  83;

COMANCHE       SUNNY     82  45  27 E6        29.95F
6HR MIN TEMP:  79; 6HR MAX TEMP:  83;

BROWNWOOD      SUNNY     81  41  24 E6        29.94F
COLEMAN        SUNNY     82  43  25 SE9       29.94F
6HR MIN TEMP:  80; 6HR MAX TEMP:  84;

BRADY          SUNNY     82  46  28 E8        29.94F
$$

TXZ143>147-156>162-174-175-230100-
CENTRAL TEXAS

CITY           SKY/WX    TMP DP  RH WIND       PRES   REMARKS
WACO           SUNNY     81  56  42 E3        29.93F
WACO-MCGREGOR  SUNNY     81  55  41 NE5       29.94F
6HR MIN TEMP:  77; 6HR MAX TEMP:  82;

HILLSBORO      SUNNY     79  54  42 NE5       29.93F
6HR MIN TEMP:  77; 6HR MAX TEMP:  81;

CORSICANA      SUNNY     80  57  45 N7        29.94F
6HR MIN TEMP:  77; 6HR MAX TEMP:  83;

MEXIA          SUNNY     77  60  55 NE5       29.92F
6HR MIN TEMP:  74; 6HR MAX TEMP:  80;

HEARNE         SUNNY     82  59  45 N5        29.92S
6HR MIN TEMP:  80; 6HR MAX TEMP:  85;

CAMERON        SUNNY     81  60  49 CALM      29.91F
6HR MIN TEMP:  79; 6HR MAX TEMP:  84;

TEMPLE         SUNNY     79  55  44 E10       29.96F
6HR MIN TEMP:  79; 6HR MAX TEMP:  82;

KILLEEN        MOSUNNY   81  55  41 E8        29.93F
KILLEEN-SKYLRK SUNNY     81  55  41 E7        29.92F
FORT HOOD      SUNNY     82  55  39 NE7       29.92F
6HR MIN TEMP:  81; 6HR MAX TEMP:  87;

GATESVILLE     SUNNY     81  55  41 NE6       29.95F
HAMILTON       SUNNY     80  49  33 SE7G17    29.95F
6HR MIN TEMP:  78; 6HR MAX TEMP:  83;

LAMPASAS       SUNNY     81  56  42 NE6       29.94S
6HR MIN TEMP:  77; 6HR MAX TEMP:  81;

$$

TXZ095>097-106>112-122>126-135>138-148>153-164>167-230100-
EAST TEXAS

CITY           SKY/WX    TMP DP  RH WIND       PRES   REMARKS
PARIS          SUNNY     77  54  44 N5        29.93F
6HR MIN TEMP:  75; 6HR MAX TEMP:  79;

SULPHUR SPRNGS SUNNY     76  54  45 N6        29.95F
6HR MIN TEMP:  76; 6HR MAX TEMP:  80;

CLARKSVILLE    SUNNY     80  51  35 CALM      29.92F
6HR MIN TEMP:  78; 6HR MAX TEMP:  82;

MOUNT PLEASANT SUNNY     79  55  42 NW6       29.93F
6HR MIN TEMP:  77; 6HR MAX TEMP:  82;

GILMER         SUNNY     79  57  47 CALM      29.94S
MINEOLA        SUNNY     81  55  41 NW5       29.93F
TYLER          SUNNY     81  56  42 NW6       29.92F
6HR MIN TEMP:  78; 6HR MAX TEMP:  84;

LONGVIEW       MOSUNNY   79  58  48 NW3       29.91F
6HR MIN TEMP:  76; 6HR MAX TEMP:  83;

MARSHALL       PTCLDY    79  56  46 CALM      29.93S
6HR MIN TEMP:  73; 6HR MAX TEMP:  80;

ATHENS         SUNNY     79  55  44 N3        29.92S
PALESTINE      SUNNY     80  55  41 N3        29.94S
JACKSONVILLE   SUNNY     78  55  44 CALM      29.94S
HENDERSON      SUNNY     79  53  40 CALM      29.93S
6HR MIN TEMP:  77; 6HR MAX TEMP:  83;

NACOGDOCHES    MOSUNNY   79  59  50 NE5       29.92S
6HR MIN TEMP:  79; 6HR MAX TEMP:  84;

LUFKIN         MOSUNNY   84  58  40 NE3       29.90F
6HR MIN TEMP:  81; 6HR MAX TEMP:  87;

$$

SUPPLEMENTAL OBSERVATIONS (CENTRAL)

CITY           SKY/WX    TMP DP  RH WIND       PRES   REMARKS
LAKE TEXOMA      N/A     77  41  27 CALM        N/A
CADDO GRASSLND   N/A     81  48  32 N1          N/A
PAT MAYSE LAKE   N/A     79  45  29 W3          N/A
ATHENS           N/A     79  57  47 N2          N/A
PALESTINE        N/A     79  59  50 N1          N/A
LAKE LIMESTONE   N/A     79  59  50 N5          N/A
MCGREGOR         N/A     81  55  41 E7          N/A
TEMPLE           N/A     81  59  47 NE7         N/A
$$

SUPPLEMENTAL OBSERVATIONS (WEST)

CITY           SKY/WX    TMP DP  RH WIND       PRES   REMARKS